Flag for Zimbabwe Weather past 2 weeks in Harare, Zimbabwe

Now
72 °F

Scattered clouds.


Feels Like: 77 °F
Forecast: 51 / 75 °F
Wind: 6 mph from South

Location: Harare Kutsaga Airport

Current Time: Apr 25, 2015 at 5:20:10 PM

Latest Report: Apr 25, 2015 at 4:00 PM


Visibility: N/A

Pressure: 30.27 "Hg

Humidity: 53%

Dew point: 54 °F

Location of HarareLocation

Historic Weather in Harare — Graph

°F

Harare temperature yesterday

Maximum temperature yesterday: 77 °F (at 1:00 PM)
Minimum temperature yesterday: 55 °F (at 6:00 AM)
Average temperature yesterday: 65 °F

Past Weeks' High & Low Weather Summary

 TemperatureHumidityPressure
High77 °F (Apr 15, 3:00 PM)100% (Apr 11, 12:00 AM)30.39 "Hg (Apr 11, 12:00 AM)
Low54 °F (Apr 25, 2:00 AM)34% (Apr 24, 12:00 PM)30.07 "Hg (Apr 15, 4:00 PM)
Average64 °F84%30.26 "Hg
* Reported Apr 10 6:00 PM — Apr 25 4:00 PM, Harare, Weather by CustomWeather, © 2015

Note: Actual official high and low records may vary slightly from our data, if they occured in-between our weather recording intervals... More about our weather records

Advertising

Harare weather history for previous 24 hours

 ConditionsComfort  
Time TempWeatherWind HumidityBarometerVisibility
4:00 PM
Sat, Apr 25
72 °FScattered clouds.6 mph53%30.27 "HgN/A
3:00 PM73 °FPartly sunny.6 mph47%30.27 "HgN/A
2:00 PM73 °FPartly sunny.7 mph47%30.27 "HgN/A
1:00 PM72 °FScattered clouds.5 mph53%30.30 "HgN/A
12:00 PM70 °FScattered clouds.8 mph60%30.33 "HgN/A
11:00 AM70 °FScattered clouds.8 mph60%30.36 "HgN/A
10:00 AM66 °FPassing clouds.9 mph68%30.39 "HgN/A
9:00 AM64 °FPassing clouds.8 mph73%30.39 "HgN/A
8:00 AM57 °FPassing clouds.8 mph100%30.36 "HgN/A
7:00 AM55 °FPassing clouds.3 mph100%30.33 "HgN/A
6:00 AM54 °FClear.6 mph100%30.33 "Hg10 mi
5:00 AM54 °FClear.6 mph100%30.33 "Hg10 mi
4:00 AM54 °FClear.5 mph100%30.33 "Hg10 mi
3:00 AM54 °FClear.6 mph100%30.33 "Hg10 mi
2:00 AM54 °FClear.5 mph100%30.33 "Hg10 mi
1:00 AM55 °FClear.7 mph100%30.33 "Hg10 mi
12:00 AM55 °FClear.6 mph100%30.36 "Hg10 mi
11:00 PM
Fri, Apr 24
57 °FClear.7 mph88%30.36 "Hg10 mi
10:00 PM59 °FClear.7 mph82%30.39 "Hg10 mi
9:00 PM61 °FClear.8 mph77%30.39 "Hg10 mi
8:00 PM63 °FClear.9 mph68%30.36 "Hg10 mi
7:00 PM64 °FPassing clouds.8 mph64%30.36 "HgN/A
6:00 PM68 °FPassing clouds.8 mph60%30.33 "HgN/A
5:00 PM72 °FPassing clouds.7 mph53%30.30 "HgN/A
Weather by CustomWeather, © 2015

See weather overviewHow to use our weather pages